Time,TemperatureF,DewpointF,PressureIn,WindDirection,WindDirectionDegrees,WindSpeedMPH,WindSpeedGustMPH,Humidity,HourlyPrecipIn,Conditions,Clouds,dailyrainin,SolarRadiationWatts/m^2,SoftwareType,DateUTC
2013-06-13 00:01:00,67.0,59.5,29.75,NNW,334,0.0,0.0,77,0.00,OVC,,0.00,0.0,WeatherDisplay:10.37,2013-06-13 04:01:00,
2013-06-13 00:06:00,67.0,59.9,29.75,NNW,335,0.0,0.0,78,0.00,OVC,,0.00,0.0,WeatherDisplay:10.37,2013-06-13 04:06:00,
2013-06-13 00:11:00,66.9,60.2,29.75,NNW,334,0.0,0.0,79,0.00,OVC,,0.00,0.0,WeatherDisplay:10.37,2013-06-13 04:11:00,
2013-06-13 00:16:00,66.8,59.4,29.75,NNW,334,2.2,5.0,77,0.00,OVC,,0.00,0.0,WeatherDisplay:10.37,2013-06-13 04:16:00,
2013-06-13 00:21:00,66.6,58.8,29.75,NNW,334,1.6,4.6,76,0.00,OVC,,0.00,0.0,WeatherDisplay:10.37,2013-06-13 04:21:00,
2013-06-13 00:26:00,66.5,58.7,29.75,NNW,335,2.8,4.0,76,0.00,OVC,,0.00,0.0,WeatherDisplay:10.37,2013-06-13 04:26:00,
2013-06-13 00:31:00,66.5,58.3,29.74,NNW,334,0.1,2.3,75,0.00,OVC,,0.00,0.0,WeatherDisplay:10.37,2013-06-13 04:31:00,
2013-06-13 00:36:00,66.5,58.3,29.74,NNW,334,1.6,4.0,75,0.00,OVC,,0.00,0.0,WeatherDisplay:10.37,2013-06-13 04:36:00,
2013-06-13 00:41:00,66.5,58.3,29.73,NNW,334,0.0,2.3,75,0.00,OVC,,0.00,0.0,WeatherDisplay:10.37,2013-06-13 04:41:00,
2013-06-13 00:46:00,66.5,58.3,29.73,NNW,335,0.2,2.3,75,0.00,OVC,,0.00,0.0,WeatherDisplay:10.37,2013-06-13 04:46:00,
2013-06-13 00:51:00,66.4,58.2,29.73,NNW,335,0.0,1.2,75,0.00,OVC,,0.00,0.0,WeatherDisplay:10.37,2013-06-13 04:51:00,
2013-06-13 00:56:00,66.4,58.2,29.72,NNW,335,0.0,1.2,75,0.00,OVC,,0.00,0.0,WeatherDisplay:10.37,2013-06-13 04:56:00,
2013-06-13 01:01:00,66.3,58.1,29.72,NNW,335,0.0,0.0,75,0.00,OVC,,0.00,0.0,WeatherDisplay:10.37,2013-06-13 05:01:00,
2013-06-13 01:06:00,66.3,58.1,29.73,NNW,335,0.0,0.0,75,0.00,OVC,,0.00,0.0,WeatherDisplay:10.37,2013-06-13 05:06:00,
2013-06-13 01:11:00,66.3,58.1,29.73,NNW,335,0.0,0.0,75,0.00,OVC,,0.00,0.0,WeatherDisplay:10.37,2013-06-13 05:11:00,
2013-06-13 01:16:00,66.2,58.4,29.73,NNW,335,0.0,0.0,76,0.00,OVC,,0.00,0.0,WeatherDisplay:10.37,2013-06-13 05:16:00,
2013-06-13 01:21:00,66.2,59.1,29.72,NNW,335,0.0,0.0,78,0.00,OVC,,0.00,0.0,WeatherDisplay:10.37,2013-06-13 05:21:00,
2013-06-13 01:26:00,66.1,59.4,29.72,NNW,335,0.0,0.0,79,0.00,OVC,,0.00,0.0,WeatherDisplay:10.37,2013-06-13 05:26:00,
2013-06-13 01:31:00,66.0,59.3,29.72,NNW,335,0.0,0.0,79,0.00,OVC,,0.00,0.0,WeatherDisplay:10.37,2013-06-13 05:31:00,
2013-06-13 01:36:00,65.8,59.1,29.72,NNW,334,0.9,3.5,79,0.00,OVC,,0.00,0.0,WeatherDisplay:10.37,2013-06-13 05:36:00,
2013-06-13 01:41:00,65.4,58.7,29.72,NNW,334,0.2,1.2,79,0.01,RA,OVC,0.01,0.0,WeatherDisplay:10.37,2013-06-13 05:41:00,
2013-06-13 01:46:00,65.1,59.1,29.71,NNW,334,0.1,2.3,81,0.01,RA,OVC,0.01,0.0,WeatherDisplay:10.37,2013-06-13 05:46:00,
2013-06-13 01:51:00,64.9,58.9,29.71,NNW,334,0.0,0.0,81,0.01,OVC,,0.01,0.0,WeatherDisplay:10.37,2013-06-13 05:51:00,
2013-06-13 01:56:00,64.7,59.1,29.71,NNW,334,0.0,1.2,82,0.01,OVC,,0.01,0.0,WeatherDisplay:10.37,2013-06-13 05:56:00,
2013-06-13 02:01:00,64.5,58.9,29.70,NNW,335,0.1,1.2,82,0.01,OVC,,0.01,0.0,WeatherDisplay:10.37,2013-06-13 06:01:00,
2013-06-13 02:06:00,64.3,59.0,29.69,NNW,335,0.0,1.2,83,0.01,OVC,,0.01,0.0,WeatherDisplay:10.37,2013-06-13 06:06:00,
2013-06-13 02:11:00,64.0,59.1,29.69,NNW,335,0.0,0.0,84,0.01,OVC,,0.01,0.0,WeatherDisplay:10.37,2013-06-13 06:11:00,
2013-06-13 02:16:00,63.9,59.0,29.68,NNW,334,0.0,0.0,84,0.01,OVC,,0.01,0.0,WeatherDisplay:10.37,2013-06-13 06:16:00,
2013-06-13 02:21:00,63.8,59.2,29.68,NNW,335,0.1,2.3,85,0.01,-RA,OVC,0.01,0.0,WeatherDisplay:10.37,2013-06-13 06:21:00,
2013-06-13 02:26:00,63.6,59.3,29.67,NNW,335,1.5,4.0,86,0.01,-RA,OVC,0.01,0.0,WeatherDisplay:10.37,2013-06-13 06:26:00,
2013-06-13 02:31:00,63.5,59.2,29.67,NNW,335,0.5,3.0,86,0.01,-RA,OVC,0.01,0.0,WeatherDisplay:10.37,2013-06-13 06:31:00,
2013-06-13 02:36:00,63.4,59.1,29.67,NNW,335,0.3,3.5,86,0.01,-RA,OVC,0.01,0.0,WeatherDisplay:10.37,2013-06-13 06:36:00,
2013-06-13 02:41:00,63.4,59.5,29.66,NNW,336,0.0,3.5,87,0.00,-RA,OVC,0.01,0.0,WeatherDisplay:10.37,2013-06-13 06:41:00,
2013-06-13 02:46:00,63.3,59.4,29.66,NNW,336,0.0,1.2,87,0.00,-RA,OVC,0.01,0.0,WeatherDisplay:10.37,2013-06-13 06:46:00,
2013-06-13 02:51:00,63.3,59.4,29.66,NNW,336,0.0,1.2,87,0.00,-RA,OVC,0.01,0.0,WeatherDisplay:10.37,2013-06-13 06:51:00,
2013-06-13 02:56:00,63.3,59.4,29.65,NNW,336,0.0,1.2,87,0.00,-RA,OVC,0.01,0.0,WeatherDisplay:10.37,2013-06-13 06:56:00,
2013-06-13 03:01:00,63.2,59.3,29.64,NNW,336,0.3,2.0,87,0.00,-RA,OVC,0.01,0.0,WeatherDisplay:10.37,2013-06-13 07:01:00,
2013-06-13 03:06:00,63.2,59.3,29.64,NNW,338,2.0,3.5,87,0.00,-RA,OVC,0.01,0.0,WeatherDisplay:10.37,2013-06-13 07:06:00,
2013-06-13 03:11:00,63.2,59.6,29.64,NNW,340,0.7,3.5,88,0.00,-RA,OVC,0.01,0.0,WeatherDisplay:10.37,2013-06-13 07:11:00,
2013-06-13 03:16:00,63.2,59.6,29.64,NNW,340,1.7,3.5,88,0.00,-RA,OVC,0.01,0.0,WeatherDisplay:10.37,2013-06-13 07:16:00,
2013-06-13 03:21:00,63.2,59.6,29.63,NNW,340,1.0,3.0,88,0.00,-RA,OVC,0.01,0.0,WeatherDisplay:10.37,2013-06-13 07:21:00,
2013-06-13 03:26:00,63.2,59.6,29.63,NNW,340,0.0,2.3,88,0.00,OVC,,0.01,0.0,WeatherDisplay:10.37,2013-06-13 07:26:00,
2013-06-13 03:31:00,63.2,59.6,29.63,NNW,340,0.0,1.0,88,0.00,OVC,,0.01,0.0,WeatherDisplay:10.37,2013-06-13 07:31:00,
2013-06-13 03:36:00,63.2,59.6,29.62,NNW,340,0.2,2.3,88,0.00,OVC,,0.01,0.0,WeatherDisplay:10.37,2013-06-13 07:36:00,
2013-06-13 03:41:00,63.2,59.6,29.63,NNW,340,0.8,2.3,88,0.00,OVC,,0.01,0.0,WeatherDisplay:10.37,2013-06-13 07:41:00,
2013-06-13 03:46:00,63.2,59.6,29.63,NNW,340,0.1,2.3,88,0.00,OVC,,0.01,0.0,WeatherDisplay:10.37,2013-06-13 07:46:00,
2013-06-13 03:51:00,63.2,59.6,29.62,NNW,340,0.0,1.2,88,0.00,OVC,,0.01,0.0,WeatherDisplay:10.37,2013-06-13 07:51:00,
2013-06-13 03:56:00,63.3,59.7,29.62,NNW,340,0.1,3.5,88,0.00,OVC,,0.01,0.0,WeatherDisplay:10.37,2013-06-13 07:56:00,
2013-06-13 04:01:00,63.4,59.8,29.62,NNW,343,0.0,3.5,88,0.00,OVC,,0.01,0.0,WeatherDisplay:10.37,2013-06-13 08:01:00,
2013-06-13 04:06:00,63.4,59.8,29.61,NNW,343,0.3,1.2,88,0.00,OVC,,0.01,0.0,WeatherDisplay:10.37,2013-06-13 08:06:00,
2013-06-13 04:11:00,63.4,59.8,29.61,NNW,343,1.5,3.5,88,0.00,OVC,,0.01,0.0,WeatherDisplay:10.37,2013-06-13 08:11:00,
2013-06-13 04:16:00,63.4,59.8,29.60,NNW,343,0.7,2.3,88,0.00,OVC,,0.01,0.0,WeatherDisplay:10.37,2013-06-13 08:16:00,
2013-06-13 04:21:00,63.4,59.8,29.59,NNW,343,0.7,3.5,88,0.00,OVC,,0.01,0.0,WeatherDisplay:10.37,2013-06-13 08:21:00,
2013-06-13 04:26:00,63.4,59.8,29.59,NNW,346,1.1,3.5,88,0.00,OVC,,0.01,0.0,WeatherDisplay:10.37,2013-06-13 08:26:00,
2013-06-13 04:31:00,63.4,59.8,29.58,NNW,347,0.7,3.5,88,0.00,OVC,,0.01,0.0,WeatherDisplay:10.37,2013-06-13 08:31:00,
2013-06-13 04:36:00,63.4,59.8,29.58,North,350,1.2,3.5,88,0.00,OVC,,0.01,0.0,WeatherDisplay:10.37,2013-06-13 08:36:00,
2013-06-13 04:41:00,63.4,59.8,29.58,North,350,0.1,2.3,88,0.00,OVC,,0.01,0.0,WeatherDisplay:10.37,2013-06-13 08:41:00,
2013-06-13 04:46:00,63.4,59.8,29.58,North,355,1.7,4.0,88,0.00,OVC,,0.01,0.0,WeatherDisplay:10.37,2013-06-13 08:46:00,
2013-06-13 04:51:00,63.5,59.9,29.57,North,355,0.1,3.5,88,0.00,OVC,,0.01,0.0,WeatherDisplay:10.37,2013-06-13 08:51:00,
2013-06-13 04:56:00,63.5,59.9,29.57,North,360,1.4,4.6,88,0.00,OVC,,0.01,0.0,WeatherDisplay:10.37,2013-06-13 08:56:00,
2013-06-13 05:01:00,63.6,60.0,29.56,North,360,0.1,2.3,88,0.00,OVC,,0.01,0.0,WeatherDisplay:10.37,2013-06-13 09:01:00,
2013-06-13 05:06:00,63.6,60.0,29.56,North,360,0.4,3.0,88,0.00,BKN,OVC,0.01,0.0,WeatherDisplay:10.37,2013-06-13 09:06:00,
2013-06-13 05:11:00,63.8,60.2,29.56,North,360,0.1,2.3,88,0.00,BKN,OVC,0.01,0.0,WeatherDisplay:10.37,2013-06-13 09:11:00,
2013-06-13 05:16:00,63.8,60.2,29.56,North,360,0.0,1.2,88,0.00,BKN,OVC,0.01,0.0,WeatherDisplay:10.37,2013-06-13 09:16:00,
2013-06-13 05:21:00,63.9,60.3,29.56,North,360,0.0,2.3,88,0.02,RA,OVC,0.03,0.0,WeatherDisplay:10.37,2013-06-13 09:21:00,
2013-06-13 05:26:00,63.9,60.3,29.57,North,360,0.0,1.2,88,0.02,RA,OVC,0.03,0.0,WeatherDisplay:10.37,2013-06-13 09:26:00,
2013-06-13 05:31:00,64.0,60.4,29.56,North,360,0.0,1.2,88,0.02,RA,OVC,0.03,0.0,WeatherDisplay:10.37,2013-06-13 09:31:00,
2013-06-13 05:36:00,64.0,60.4,29.56,North,360,0.0,0.0,88,0.03,RA,OVC,0.04,0.0,WeatherDisplay:10.37,2013-06-13 09:36:00,
2013-06-13 05:41:00,64.0,60.4,29.56,North,360,0.0,0.0,88,0.03,RA,OVC,0.04,0.0,WeatherDisplay:10.37,2013-06-13 09:41:00,
2013-06-13 05:46:00,64.0,60.7,29.56,North,360,0.0,0.0,89,0.04,RA,OVC,0.05,0.0,WeatherDisplay:10.37,2013-06-13 09:46:00,
2013-06-13 05:51:00,63.9,60.6,29.56,North,360,0.0,0.0,89,0.05,RA,OVC,0.06,0.0,WeatherDisplay:10.37,2013-06-13 09:51:00,
2013-06-13 05:56:00,63.9,60.6,29.56,North,360,0.0,0.0,89,0.06,RA,OVC,0.08,0.0,WeatherDisplay:10.37,2013-06-13 09:56:00,
2013-06-13 06:01:00,63.8,60.5,29.55,North,360,0.6,2.0,89,0.07,RA,OVC,0.09,0.0,WeatherDisplay:10.37,2013-06-13 10:01:00,
2013-06-13 06:06:00,63.8,60.5,29.54,North,5,0.4,2.3,89,0.09,RA,OVC,0.10,0.0,WeatherDisplay:10.37,2013-06-13 10:06:00,
2013-06-13 06:11:00,63.8,60.8,29.54,North,5,0.2,4.6,90,0.09,RA,OVC,0.11,0.0,WeatherDisplay:10.37,2013-06-13 10:11:00,
2013-06-13 06:16:00,63.8,60.8,29.54,North,5,0.1,1.2,90,0.10,RA,OVC,0.11,0.0,WeatherDisplay:10.37,2013-06-13 10:16:00,
2013-06-13 06:21:00,63.7,60.7,29.54,NNE,13,0.9,4.0,90,0.12,-RA,OVC,0.14,0.0,WeatherDisplay:10.37,2013-06-13 10:21:00,
2013-06-13 06:26:00,63.7,60.7,29.54,East,94,1.2,11.5,90,0.13,-RA,OVC,0.16,0.0,WeatherDisplay:10.37,2013-06-13 10:26:00,
2013-06-13 06:31:00,63.6,60.6,29.53,East,94,1.2,3.5,90,0.15,-RA,OVC,0.18,0.0,WeatherDisplay:10.37,2013-06-13 10:31:00,
2013-06-13 06:36:00,63.6,60.6,29.53,East,96,2.4,6.0,90,0.16,-RA,OVC,0.20,0.0,WeatherDisplay:10.37,2013-06-13 10:36:00,
2013-06-13 06:41:00,63.6,60.9,29.53,East,96,0.3,3.5,91,0.16,-RA,OVC,0.21,0.0,WeatherDisplay:10.37,2013-06-13 10:41:00,
2013-06-13 06:46:00,63.7,61.0,29.52,East,96,0.2,1.2,91,0.17,-RA,OVC,0.22,5.0,WeatherDisplay:10.37,2013-06-13 10:46:00,
2013-06-13 06:51:00,63.7,61.0,29.52,East,97,0.6,3.5,91,0.16,-RA,OVC,0.23,5.0,WeatherDisplay:10.37,2013-06-13 10:51:00,
2013-06-13 06:56:00,63.7,61.0,29.51,East,97,0.2,3.5,91,0.17,-RA,OVC,0.24,7.0,WeatherDisplay:10.37,2013-06-13 10:56:00,
2013-06-13 07:01:00,63.7,61.0,29.52,East,97,0.2,3.5,91,0.16,-RA,OVC,0.25,5.0,WeatherDisplay:10.37,2013-06-13 11:01:00,
2013-06-13 07:06:00,63.7,61.0,29.52,East,97,0.0,3.5,91,0.16,-RA,OVC,0.26,5.0,WeatherDisplay:10.37,2013-06-13 11:06:00,
2013-06-13 07:11:00,63.7,61.0,29.52,East,97,0.0,2.3,91,0.18,-RA,OVC,0.28,5.0,WeatherDisplay:10.37,2013-06-13 11:11:00,
2013-06-13 07:16:00,63.8,61.1,29.51,East,97,0.4,2.3,91,0.18,-RA,OVC,0.29,11.0,WeatherDisplay:10.37,2013-06-13 11:16:00,
2013-06-13 07:21:00,63.8,61.1,29.51,East,97,1.3,3.5,91,0.16,-RA,OVC,0.31,12.0,WeatherDisplay:10.37,2013-06-13 11:21:00,
2013-06-13 07:26:00,63.8,61.1,29.50,East,97,0.2,3.5,91,0.15, +RA,OVC,0.31,14.0,WeatherDisplay:10.37,2013-06-13 11:26:00,
2013-06-13 07:31:00,63.8,61.1,29.50,East,94,3.1,6.0,91,0.14, +RA,OVC,0.32,14.0,WeatherDisplay:10.37,2013-06-13 11:31:00,
2013-06-13 07:36:00,63.8,61.4,29.50,East,92,2.3,4.0,92,0.13, +RA,OVC,0.33,14.0,WeatherDisplay:10.37,2013-06-13 11:36:00,
2013-06-13 07:41:00,63.8,61.4,29.49,East,91,1.6,6.0,92,0.15, +RA,OVC,0.35,16.0,WeatherDisplay:10.37,2013-06-13 11:41:00,
2013-06-13 07:46:00,63.8,61.4,29.49,East,88,2.2,5.0,92,0.14, +RA,OVC,0.36,19.0,WeatherDisplay:10.37,2013-06-13 11:46:00,
2013-06-13 07:51:00,63.8,61.4,29.50,East,88,0.0,3.5,92,0.14, +RA,OVC,0.37,16.0,WeatherDisplay:10.37,2013-06-13 11:51:00,
2013-06-13 07:56:00,63.8,61.4,29.49,East,88,0.9,3.5,92,0.13, +RA,OVC,0.38,14.0,WeatherDisplay:10.37,2013-06-13 11:56:00,
2013-06-13 08:01:00,63.8,61.4,29.49,East,88,0.0,2.3,92,0.13,-RA,OVC,0.38,23.0,WeatherDisplay:10.37,2013-06-13 12:01:00,
2013-06-13 08:06:00,63.8,61.4,29.49,East,88,2.1,5.0,92,0.13,-RA,OVC,0.39,23.0,WeatherDisplay:10.37,2013-06-13 12:06:00,
2013-06-13 08:11:00,63.8,61.4,29.49,East,88,1.1,4.6,92,0.12,-RA,OVC,0.40,21.0,WeatherDisplay:10.37,2013-06-13 12:11:00,
2013-06-13 08:16:00,63.8,61.4,29.49,East,88,1.9,4.0,92,0.11,-RA,OVC,0.40,23.0,WeatherDisplay:10.37,2013-06-13 12:16:00,
2013-06-13 08:21:00,63.7,61.3,29.50,East,87,0.3,4.6,92,0.11,-RA,OVC,0.41,25.0,WeatherDisplay:10.37,2013-06-13 12:21:00,
2013-06-13 08:26:00,63.7,61.3,29.50,East,87,1.4,4.0,92,0.11,RA,OVC,0.43,25.0,WeatherDisplay:10.37,2013-06-13 12:26:00,
2013-06-13 08:31:00,63.6,61.2,29.49,East,87,4.3,7.0,92,0.13,RA,OVC,0.45,32.0,WeatherDisplay:10.37,2013-06-13 12:31:00,
2013-06-13 08:36:00,63.5,61.1,29.49,East,83,2.5,8.1,92,0.14,RA,OVC,0.48,30.0,WeatherDisplay:10.37,2013-06-13 12:36:00,
2013-06-13 08:41:00,63.4,61.0,29.50,East,83,1.6,4.6,92,0.14,RA,OVC,0.49,21.0,WeatherDisplay:10.37,2013-06-13 12:41:00,
2013-06-13 08:46:00,63.4,61.0,29.49,East,83,4.6,7.0,92,0.16,RA,OVC,0.53,18.0,WeatherDisplay:10.37,2013-06-13 12:46:00,
2013-06-13 08:51:00,63.3,60.9,29.49,ENE,74,1.9,4.6,92,0.19,RA,OVC,0.55,23.0,WeatherDisplay:10.37,2013-06-13 12:51:00,
2013-06-13 08:56:00,63.2,60.8,29.49,ENE,72,4.3,8.1,92,0.20, +RA,OVC,0.58,28.0,WeatherDisplay:10.37,2013-06-13 12:56:00,
2013-06-13 09:01:00,63.2,60.8,29.49,ENE,72,3.6,5.0,92,0.25, +RA,OVC,0.63,30.0,WeatherDisplay:10.37,2013-06-13 13:01:00,
2013-06-13 09:06:00,63.1,60.7,29.49,ENE,69,4.3,8.1,92,0.26, +RA,OVC,0.65,33.0,WeatherDisplay:10.37,2013-06-13 13:06:00,
2013-06-13 09:11:00,63.0,60.6,29.49,ENE,62,6.2,9.2,92,0.28, +RA,OVC,0.69,40.0,WeatherDisplay:10.37,2013-06-13 13:11:00,
2013-06-13 09:16:00,62.9,60.5,29.49,ENE,63,1.6,9.2,92,0.32, +RA,OVC,0.72,37.0,WeatherDisplay:10.37,2013-06-13 13:16:00,
2013-06-13 09:21:00,62.8,60.4,29.48,ENE,61,4.1,8.1,92,0.33, +RA,OVC,0.74,46.0,WeatherDisplay:10.37,2013-06-13 13:21:00,
2013-06-13 09:26:00,62.7,60.3,29.48,ENE,57,6.4,10.4,92,0.34,RA,OVC,0.76,49.0,WeatherDisplay:10.37,2013-06-13 13:26:00,
2013-06-13 09:31:00,62.7,60.3,29.48,NE,48,5.2,11.5,92,0.33,RA,OVC,0.78,54.0,WeatherDisplay:10.37,2013-06-13 13:31:00,
2013-06-13 09:36:00,62.6,60.2,29.48,NE,34,6.7,13.0,92,0.32,RA,OVC,0.79,37.0,WeatherDisplay:10.37,2013-06-13 13:36:00,
2013-06-13 09:41:00,62.6,60.5,29.48,NE,34,3.4,10.4,93,0.32,RA,OVC,0.81,42.0,WeatherDisplay:10.37,2013-06-13 13:41:00,
2013-06-13 09:46:00,62.5,60.4,29.48,NE,36,5.3,10.4,93,0.30, +RA,OVC,0.82,39.0,WeatherDisplay:10.37,2013-06-13 13:46:00,
2013-06-13 09:51:00,62.5,60.4,29.48,NE,44,3.9,6.0,93,0.29, +RA,OVC,0.84,30.0,WeatherDisplay:10.37,2013-06-13 13:51:00,
2013-06-13 09:56:00,62.5,60.4,29.48,NNE,30,5.1,9.2,93,0.27,RA,OVC,0.85,47.0,WeatherDisplay:10.37,2013-06-13 13:56:00,
2013-06-13 10:01:00,62.4,60.3,29.48,NE,42,6.9,13.0,93,0.26,RA,OVC,0.88,54.0,WeatherDisplay:10.37,2013-06-13 14:01:00,
2013-06-13 10:06:00,62.3,60.2,29.49,NE,38,8.0,12.0,93,0.26,RA,OVC,0.91,49.0,WeatherDisplay:10.37,2013-06-13 14:06:00,
2013-06-13 10:11:00,62.3,60.2,29.48,NE,42,7.2,11.5,93,0.26,RA,OVC,0.95,77.0,WeatherDisplay:10.37,2013-06-13 14:11:00,
2013-06-13 10:16:00,62.2,60.2,29.48,NNE,23,7.7,12.0,93,0.26, +RA,OVC,0.98,69.0,WeatherDisplay:10.37,2013-06-13 14:16:00,
2013-06-13 10:21:00,62.2,60.2,29.48,NNE,25,6.2,11.5,93,0.24, +RA,OVC,0.98,81.0,WeatherDisplay:10.37,2013-06-13 14:21:00,
2013-06-13 10:26:00,62.0,60.0,29.49,NE,34,7.8,15.0,93,0.22, +RA,OVC,0.98,83.0,WeatherDisplay:10.37,2013-06-13 14:26:00,
2013-06-13 10:31:00,61.9,59.9,29.49,NNE,20,6.0,10.4,93,0.21, +RA,OVC,0.99,111.0,WeatherDisplay:10.37,2013-06-13 14:31:00,
2013-06-13 10:36:00,61.9,59.9,29.49,NE,34,9.4,15.0,93,0.20, +RA,OVC,0.99,109.0,WeatherDisplay:10.37,2013-06-13 14:36:00,
2013-06-13 10:41:00,61.8,59.8,29.49,NNE,15,9.2,15.0,93,0.19, +RA,OVC,1.00,118.0,WeatherDisplay:10.37,2013-06-13 14:41:00,
2013-06-13 10:46:00,61.7,59.7,29.49,NE,47,10.3,17.3,93,0.18,RA,OVC,1.00,153.0,WeatherDisplay:10.37,2013-06-13 14:46:00,
2013-06-13 10:51:00,61.6,59.6,29.49,ENE,68,7.7,15.0,93,0.16,OVC,,1.00,197.0,WeatherDisplay:10.37,2013-06-13 14:51:00,
2013-06-13 10:56:00,61.6,59.6,29.49,NE,43,6.7,11.5,93,0.15,OVC,,1.00,130.0,WeatherDisplay:10.37,2013-06-13 14:56:00,
2013-06-13 11:01:00,61.6,59.6,29.49,NNE,28,9.0,14.0,93,0.12,OVC,,1.00,174.0,WeatherDisplay:10.37,2013-06-13 15:01:00,
2013-06-13 11:06:00,61.4,59.4,29.49,NE,46,7.6,13.0,93,0.09,OVC,,1.00,107.0,WeatherDisplay:10.37,2013-06-13 15:06:00,
2013-06-13 11:11:00,61.2,59.2,29.49,NNE,27,8.0,13.0,93,0.05,OVC,,1.00,65.0,WeatherDisplay:10.37,2013-06-13 15:11:00,
2013-06-13 11:16:00,60.9,58.6,29.50,North,5,8.0,16.0,92,0.04,-RA,OVC,1.02,98.0,WeatherDisplay:10.37,2013-06-13 15:16:00,
2013-06-13 11:21:00,60.6,58.3,29.50,NE,50,9.7,14.0,92,0.07,-RA,OVC,1.06,155.0,WeatherDisplay:10.37,2013-06-13 15:21:00,
2013-06-13 11:26:00,60.4,58.4,29.50,NNE,22,6.8,13.8,93,0.09,-RA,OVC,1.07,130.0,WeatherDisplay:10.37,2013-06-13 15:26:00,
2013-06-13 11:31:00,60.5,58.5,29.50,NE,48,4.1,11.5,93,0.08,-RA,OVC,1.07,146.0,WeatherDisplay:10.37,2013-06-13 15:31:00,
2013-06-13 11:36:00,60.5,58.5,29.50,NE,46,4.8,10.4,93,0.08,-RA,OVC,1.07,171.0,WeatherDisplay:10.37,2013-06-13 15:36:00,
2013-06-13 11:41:00,60.6,58.6,29.50,NE,38,7.7,16.1,93,0.07,-RA,OVC,1.07,220.0,WeatherDisplay:10.37,2013-06-13 15:41:00,
2013-06-13 11:46:00,60.5,58.5,29.50,NNE,18,5.9,11.5,93,0.07,-RA,OVC,1.07,243.0,WeatherDisplay:10.37,2013-06-13 15:46:00,
2013-06-13 11:51:00,60.5,58.5,29.50,NE,38,8.1,12.0,93,0.07,-RA,OVC,1.07,93.0,WeatherDisplay:10.37,2013-06-13 15:51:00,
2013-06-13 11:56:00,60.5,58.5,29.51,NNE,23,8.8,16.1,93,0.07,-RA,OVC,1.07,127.0,WeatherDisplay:10.37,2013-06-13 15:56:00,
2013-06-13 12:01:00,60.4,58.4,29.51,NNE,15,5.5,11.5,93,0.07,-RA,OVC,1.07,142.0,WeatherDisplay:10.37,2013-06-13 16:01:00,
2013-06-13 12:06:00,60.4,58.4,29.51,NNE,28,9.5,13.8,93,0.07,-RA,OVC,1.07,167.0,WeatherDisplay:10.37,2013-06-13 16:06:00,
2013-06-13 12:11:00,60.5,58.5,29.52,North,10,9.3,14.0,93,0.07,-RA,OVC,1.07,202.0,WeatherDisplay:10.37,2013-06-13 16:11:00,
2013-06-13 12:16:00,60.5,58.5,29.52,NNE,28,5.2,11.5,93,0.05,-RA,OVC,1.07,178.0,WeatherDisplay:10.37,2013-06-13 16:16:00,
2013-06-13 12:21:00,60.5,58.5,29.52,North,11,10.1,14.0,93,0.01,-RA,OVC,1.07,230.0,WeatherDisplay:10.37,2013-06-13 16:21:00,
2013-06-13 12:26:00,60.5,58.5,29.52,NE,35,7.6,12.0,93,0.01,-RA,OVC,1.07,221.0,WeatherDisplay:10.37,2013-06-13 16:26:00,
2013-06-13 12:31:00,60.6,58.6,29.52,NNE,28,8.0,12.0,93,0.00,-RA,OVC,1.07,267.0,WeatherDisplay:10.37,2013-06-13 16:31:00,
2013-06-13 12:36:00,60.7,58.7,29.52,NNE,17,7.8,11.5,93,0.00,-RA,OVC,1.07,209.0,WeatherDisplay:10.37,2013-06-13 16:36:00,
2013-06-13 12:41:00,60.9,58.9,29.53,NNE,24,7.3,11.0,93,0.00,-RA,OVC,1.07,135.0,WeatherDisplay:10.37,2013-06-13 16:41:00,
2013-06-13 12:46:00,60.8,58.5,29.53,NNE,22,10.7,16.1,92,0.00,-RA,OVC,1.07,125.0,WeatherDisplay:10.37,2013-06-13 16:46:00,
2013-06-13 12:51:00,60.6,58.3,29.53,NE,44,10.0,14.0,92,0.00,-RA,OVC,1.07,146.0,WeatherDisplay:10.37,2013-06-13 16:51:00,
2013-06-13 12:56:00,60.4,58.1,29.53,NE,34,6.2,13.8,92,0.00,-RA,OVC,1.07,120.0,WeatherDisplay:10.37,2013-06-13 16:56:00,
2013-06-13 13:01:00,60.4,58.1,29.53,NE,34,5.8,10.4,92,0.00,-RA,OVC,1.07,120.0,WeatherDisplay:10.37,2013-06-13 17:01:00,
2013-06-13 13:06:00,60.5,58.2,29.53,NNE,19,7.3,12.7,92,0.00,-RA,OVC,1.07,214.0,WeatherDisplay:10.37,2013-06-13 17:06:00,
2013-06-13 13:11:00,60.4,58.1,29.53,NE,44,10.5,15.0,92,0.00,-RA,OVC,1.07,276.0,WeatherDisplay:10.37,2013-06-13 17:11:00,
2013-06-13 13:16:00,60.5,58.2,29.53,NNW,343,7.2,14.0,92,0.00,-RA,OVC,1.07,190.0,WeatherDisplay:10.37,2013-06-13 17:16:00,
2013-06-13 13:21:00,60.6,58.3,29.54,NNE,33,10.2,15.0,92,0.00,-RA,OVC,1.07,146.0,WeatherDisplay:10.37,2013-06-13 17:21:00,
2013-06-13 13:26:00,60.5,58.2,29.54,NNE,25,7.1,12.7,92,0.00,-RA,OVC,1.07,120.0,WeatherDisplay:10.37,2013-06-13 17:26:00,
2013-06-13 13:31:00,60.5,58.2,29.54,North,5,6.2,12.7,92,0.00,-RA,OVC,1.07,107.0,WeatherDisplay:10.37,2013-06-13 17:31:00,
2013-06-13 13:36:00,60.5,58.2,29.54,North,5,9.3,16.1,92,0.00,-RA,OVC,1.07,109.0,WeatherDisplay:10.37,2013-06-13 17:36:00,
2013-06-13 13:41:00,60.5,58.2,29.54,North,360,7.5,11.5,92,0.00,-RA,OVC,1.07,134.0,WeatherDisplay:10.37,2013-06-13 17:41:00,
2013-06-13 13:46:00,60.4,58.1,29.55,North,9,8.0,13.0,92,0.00,-RA,OVC,1.07,93.0,WeatherDisplay:10.37,2013-06-13 17:46:00,
2013-06-13 13:51:00,60.2,57.9,29.55,North,5,9.8,13.0,92,0.00,-RA,OVC,1.07,77.0,WeatherDisplay:10.37,2013-06-13 17:51:00,
2013-06-13 13:56:00,59.8,57.2,29.56,North,9,11.3,17.3,91,0.00,-RA,OVC,1.07,74.0,WeatherDisplay:10.37,2013-06-13 17:56:00,
2013-06-13 14:01:00,59.4,57.1,29.55,North,5,10.6,14.0,92,0.00,-RA,OVC,1.07,77.0,WeatherDisplay:10.37,2013-06-13 18:01:00,
2013-06-13 14:06:00,59.2,56.9,29.56,NNW,344,11.3,17.0,92,0.00,-RA,OVC,1.07,76.0,WeatherDisplay:10.37,2013-06-13 18:06:00,
2013-06-13 14:11:00,58.8,56.5,29.56,NNW,348,10.0,16.0,92,0.00,-RA,OVC,1.07,76.0,WeatherDisplay:10.37,2013-06-13 18:11:00,
2013-06-13 14:16:00,58.6,56.3,29.57,NNW,340,8.2,13.0,92,0.00,-RA,OVC,1.07,72.0,WeatherDisplay:10.37,2013-06-13 18:16:00,
2013-06-13 14:21:00,58.4,56.1,29.58,North,355,6.9,12.7,92,0.00,-RA,OVC,1.07,76.0,WeatherDisplay:10.37,2013-06-13 18:21:00,
2013-06-13 14:26:00,58.3,56.0,29.58,North,5,7.7,10.4,92,0.00,-RA,OVC,1.07,70.0,WeatherDisplay:10.37,2013-06-13 18:26:00,
2013-06-13 14:31:00,58.3,56.0,29.58,North,350,7.1,11.5,92,0.00,-RA,OVC,1.07,70.0,WeatherDisplay:10.37,2013-06-13 18:31:00,
2013-06-13 14:36:00,58.3,56.0,29.59,NNW,338,10.4,15.0,92,0.00,-RA,OVC,1.07,70.0,WeatherDisplay:10.37,2013-06-13 18:36:00,
2013-06-13 14:41:00,58.3,56.0,29.59,NNW,342,8.4,13.0,92,0.00,OVC,,1.07,62.0,WeatherDisplay:10.37,2013-06-13 18:41:00,
2013-06-13 14:46:00,58.4,56.4,29.60,North,11,6.0,12.7,93,0.00,OVC,,1.07,54.0,WeatherDisplay:10.37,2013-06-13 18:46:00,
2013-06-13 14:51:00,58.5,56.5,29.60,NNE,14,7.0,17.3,93,0.00,OVC,,1.07,69.0,WeatherDisplay:10.37,2013-06-13 18:51:00,
2013-06-13 14:56:00,58.6,56.6,29.60,NNE,25,4.1,11.5,93,0.00,OVC,,1.07,70.0,WeatherDisplay:10.37,2013-06-13 18:56:00,
2013-06-13 15:01:00,58.7,56.7,29.60,North,11,6.8,12.7,93,0.00,OVC,,1.07,69.0,WeatherDisplay:10.37,2013-06-13 19:01:00,
2013-06-13 15:06:00,58.8,56.8,29.60,NNE,30,7.8,12.7,93,0.00,OVC,,1.07,74.0,WeatherDisplay:10.37,2013-06-13 19:06:00,
2013-06-13 15:11:00,59.0,56.7,29.61,North,350,8.1,12.0,92,0.00,OVC,,1.07,56.0,WeatherDisplay:10.37,2013-06-13 19:11:00,
2013-06-13 15:16:00,58.8,56.5,29.62,NNW,340,6.8,12.7,92,0.00,OVC,,1.07,37.0,WeatherDisplay:10.37,2013-06-13 19:16:00,
2013-06-13 15:21:00,58.2,55.9,29.62,North,360,10.4,16.1,92,0.00,OVC,,1.07,44.0,WeatherDisplay:10.37,2013-06-13 19:21:00,
2013-06-13 15:26:00,57.8,55.5,29.63,NNW,343,13.0,21.0,92,0.00,OVC,,1.07,54.0,WeatherDisplay:10.37,2013-06-13 19:26:00,
2013-06-13 15:31:00,57.5,55.2,29.63,NNE,14,11.0,18.0,92,0.00,OVC,,1.07,56.0,WeatherDisplay:10.37,2013-06-13 19:31:00,
2013-06-13 15:36:00,57.3,55.0,29.64,NNW,348,8.9,14.0,92,0.00,OVC,,1.07,67.0,WeatherDisplay:10.37,2013-06-13 19:36:00,
2013-06-13 15:41:00,57.2,54.9,29.64,NNE,12,8.7,15.0,92,0.00,OVC,,1.07,70.0,WeatherDisplay:10.37,2013-06-13 19:41:00,
2013-06-13 15:46:00,57.3,55.0,29.65,NNW,339,7.1,15.0,92,0.00,OVC,,1.07,76.0,WeatherDisplay:10.37,2013-06-13 19:46:00,
2013-06-13 15:51:00,57.3,55.0,29.65,North,355,8.5,13.8,92,0.00,-RA,OVC,1.07,93.0,WeatherDisplay:10.37,2013-06-13 19:51:00,
2013-06-13 15:56:00,57.3,55.0,29.65,North,11,7.7,13.8,92,0.00,-RA,OVC,1.07,90.0,WeatherDisplay:10.37,2013-06-13 19:56:00,
2013-06-13 16:01:00,57.3,55.0,29.65,NNE,17,7.4,11.5,92,0.00,-RA,OVC,1.07,90.0,WeatherDisplay:10.37,2013-06-13 20:01:00,
2013-06-13 16:06:00,57.2,54.9,29.66,NNE,21,10.2,17.3,92,0.00,-RA,OVC,1.07,111.0,WeatherDisplay:10.37,2013-06-13 20:06:00,
2013-06-13 16:11:00,57.1,54.8,29.66,North,5,6.2,16.1,92,0.00,-RA,OVC,1.07,134.0,WeatherDisplay:10.37,2013-06-13 20:11:00,
2013-06-13 16:16:00,57.2,54.9,29.67,North,355,5.1,11.5,92,0.00,-RA,OVC,1.07,104.0,WeatherDisplay:10.37,2013-06-13 20:16:00,
2013-06-13 16:21:00,57.2,54.9,29.67,NNW,342,7.1,11.5,92,0.00,-RA,OVC,1.07,213.0,WeatherDisplay:10.37,2013-06-13 20:21:00,
2013-06-13 16:26:00,57.4,55.1,29.67,North,5,9.6,12.7,92,0.00,-RA,OVC,1.07,221.0,WeatherDisplay:10.37,2013-06-13 20:26:00,
2013-06-13 16:31:00,57.5,55.2,29.67,North,11,8.2,17.3,92,0.00,-RA,OVC,1.07,98.0,WeatherDisplay:10.37,2013-06-13 20:31:00,
2013-06-13 16:36:00,57.5,55.2,29.68,North,5,7.7,12.7,92,0.00,-RA,OVC,1.07,171.0,WeatherDisplay:10.37,2013-06-13 20:36:00,
2013-06-13 16:41:00,57.5,55.2,29.68,NNE,26,6.7,15.0,92,0.00,-RA,OVC,1.07,229.0,WeatherDisplay:10.37,2013-06-13 20:41:00,
2013-06-13 16:46:00,57.7,55.4,29.68,NNW,340,9.3,19.6,92,0.00,-RA,OVC,1.07,163.0,WeatherDisplay:10.37,2013-06-13 20:46:00,
2013-06-13 16:51:00,57.8,55.5,29.68,NNE,15,5.8,11.5,92,0.00,-RA,OVC,1.07,178.0,WeatherDisplay:10.37,2013-06-13 20:51:00,
2013-06-13 16:56:00,58.0,55.7,29.68,North,350,10.0,15.0,92,0.00,-RA,OVC,1.07,174.0,WeatherDisplay:10.37,2013-06-13 20:56:00,
2013-06-13 17:01:00,58.2,55.6,29.68,North,5,8.5,14.0,91,0.00,OVC,,1.07,243.0,WeatherDisplay:10.37,2013-06-13 21:01:00,
2013-06-13 17:06:00,58.4,55.8,29.68,NNE,28,8.0,16.1,91,0.00,OVC,,1.07,234.0,WeatherDisplay:10.37,2013-06-13 21:06:00,
2013-06-13 17:11:00,58.6,56.0,29.68,NNE,19,9.1,14.0,91,0.00,OVC,,1.07,230.0,WeatherDisplay:10.37,2013-06-13 21:11:00,
2013-06-13 17:16:00,58.8,56.2,29.68,NNE,28,9.1,16.1,91,0.00,OVC,,1.07,169.0,WeatherDisplay:10.37,2013-06-13 21:16:00,
2013-06-13 17:21:00,58.9,56.0,29.68,NE,36,8.3,16.1,90,0.00,OVC,,1.07,174.0,WeatherDisplay:10.37,2013-06-13 21:21:00,
2013-06-13 17:26:00,59.0,56.1,29.69,NNE,33,8.6,13.8,90,0.00,OVC,,1.07,139.0,WeatherDisplay:10.37,2013-06-13 21:26:00,
2013-06-13 17:31:00,59.1,56.2,29.69,NNE,21,5.8,11.5,90,0.01,RA,OVC,1.08,132.0,WeatherDisplay:10.37,2013-06-13 21:31:00,
2013-06-13 17:36:00,59.2,56.0,29.69,NE,55,11.6,17.0,89,0.01,RA,OVC,1.08,121.0,WeatherDisplay:10.37,2013-06-13 21:36:00,
2013-06-13 17:41:00,59.2,55.6,29.69,NE,45,10.4,19.6,88,0.01,OVC,,1.08,174.0,WeatherDisplay:10.37,2013-06-13 21:41:00,
2013-06-13 17:46:00,59.4,56.2,29.69,NNE,24,6.2,12.7,89,0.01,OVC,,1.08,151.0,WeatherDisplay:10.37,2013-06-13 21:46:00,
2013-06-13 17:51:00,59.5,55.9,29.69,NE,44,7.7,12.0,88,0.01,OVC,,1.08,93.0,WeatherDisplay:10.37,2013-06-13 21:51:00,
2013-06-13 17:56:00,59.6,56.0,29.70,NNE,26,5.9,10.4,88,0.01,OVC,,1.08,98.0,WeatherDisplay:10.37,2013-06-13 21:56:00,
2013-06-13 18:01:00,59.6,56.0,29.70,NNE,18,5.1,11.5,88,0.01,OVC,,1.08,111.0,WeatherDisplay:10.37,2013-06-13 22:01:00,
2013-06-13 18:06:00,59.6,56.0,29.70,NE,51,6.3,11.5,88,0.01,BKN,OVC,1.08,114.0,WeatherDisplay:10.37,2013-06-13 22:06:00,
2013-06-13 18:11:00,59.7,55.8,29.70,NNE,14,7.5,13.8,87,0.01,BKN,OVC,1.08,97.0,WeatherDisplay:10.37,2013-06-13 22:11:00,
2013-06-13 18:16:00,59.6,55.7,29.70,NNE,29,7.7,11.5,87,0.01,BKN,OVC,1.08,146.0,WeatherDisplay:10.37,2013-06-13 22:16:00,
2013-06-13 18:21:00,59.8,55.9,29.71,NE,45,5.4,10.4,87,0.01,BKN,OVC,1.08,171.0,WeatherDisplay:10.37,2013-06-13 22:21:00,
2013-06-13 18:26:00,60.0,56.1,29.71,East,82,4.0,11.5,87,0.01,BKN,OVC,1.08,186.0,WeatherDisplay:10.37,2013-06-13 22:26:00,
2013-06-13 18:31:00,60.2,56.0,29.71,NNE,31,7.4,12.0,86,0.00,BKN,OVC,1.08,127.0,WeatherDisplay:10.37,2013-06-13 22:31:00,
2013-06-13 18:36:00,60.3,56.1,29.72,NNE,21,7.4,11.5,86,0.00,BKN,OVC,1.08,160.0,WeatherDisplay:10.37,2013-06-13 22:36:00,
2013-06-13 18:41:00,60.4,56.2,29.72,NNE,28,6.2,11.5,86,0.00,BKN,OVC,1.08,169.0,WeatherDisplay:10.37,2013-06-13 22:41:00,
2013-06-13 18:46:00,60.7,56.2,29.72,NE,44,6.3,12.7,85,0.00,BKN,OVC,1.08,206.0,WeatherDisplay:10.37,2013-06-13 22:46:00,
2013-06-13 18:51:00,61.0,56.5,29.72,NNE,28,6.4,11.5,85,0.00,BKN,OVC,1.08,214.0,WeatherDisplay:10.37,2013-06-13 22:51:00,
2013-06-13 18:56:00,61.3,56.8,29.72,NE,34,4.3,8.1,85,0.00,BKN,OVC,1.08,214.0,WeatherDisplay:10.37,2013-06-13 22:56:00,
2013-06-13 19:01:00,61.5,56.6,29.72,NE,38,8.8,13.0,84,0.00,BKN,OVC,1.08,95.0,WeatherDisplay:10.37,2013-06-13 23:01:00,
2013-06-13 19:06:00,61.4,56.2,29.72,ENE,61,5.9,12.7,83,0.00,BKN,OVC,1.08,86.0,WeatherDisplay:10.37,2013-06-13 23:06:00,
2013-06-13 19:11:00,61.2,55.7,29.72,NE,49,3.8,11.5,82,0.00,BKN,OVC,1.08,49.0,WeatherDisplay:10.37,2013-06-13 23:11:00,
2013-06-13 19:16:00,61.1,55.9,29.73,NE,49,4.0,7.0,83,0.00,BKN,OVC,1.08,113.0,WeatherDisplay:10.37,2013-06-13 23:16:00,
2013-06-13 19:21:00,60.9,55.7,29.73,NE,44,4.1,9.2,83,0.00,BKN,OVC,1.08,49.0,WeatherDisplay:10.37,2013-06-13 23:21:00,
2013-06-13 19:26:00,60.8,55.6,29.73,NE,42,6.5,11.5,83,0.00,BKN,OVC,1.08,49.0,WeatherDisplay:10.37,2013-06-13 23:26:00,
2013-06-13 19:31:00,60.7,55.5,29.73,NE,49,2.7,10.4,83,0.00,BKN,OVC,1.08,67.0,WeatherDisplay:10.37,2013-06-13 23:31:00,
2013-06-13 19:36:00,60.5,55.3,29.74,ENE,59,3.9,8.1,83,0.00,BKN,OVC,1.08,58.0,WeatherDisplay:10.37,2013-06-13 23:36:00,
2013-06-13 19:41:00,60.5,55.6,29.74,ENE,62,1.0,8.1,84,0.00,BKN,OVC,1.08,47.0,WeatherDisplay:10.37,2013-06-13 23:41:00,
2013-06-13 19:46:00,60.5,55.6,29.74,ENE,62,1.2,4.6,84,0.00,BKN,OVC,1.08,51.0,WeatherDisplay:10.37,2013-06-13 23:46:00,
2013-06-13 19:51:00,60.4,55.5,29.74,ENE,62,1.2,4.6,84,0.00,BKN,OVC,1.08,93.0,WeatherDisplay:10.37,2013-06-13 23:51:00,
2013-06-13 19:56:00,60.4,55.5,29.75,ENE,62,2.5,3.5,84,0.00,BKN,OVC,1.08,83.0,WeatherDisplay:10.37,2013-06-13 23:56:00,
2013-06-13 20:01:00,60.4,55.5,29.75,ENE,62,1.8,5.8,84,0.00,BKN,OVC,1.08,40.0,WeatherDisplay:10.37,2013-06-14 00:01:00,
2013-06-13 20:06:00,60.4,55.5,29.76,ENE,62,2.7,4.6,84,0.00,BKN,OVC,1.08,39.0,WeatherDisplay:10.37,2013-06-14 00:06:00,
2013-06-13 20:11:00,60.5,55.6,29.76,ENE,59,3.4,6.9,84,0.00,BKN,OVC,1.08,23.0,WeatherDisplay:10.37,2013-06-14 00:11:00,
2013-06-13 20:16:00,60.5,55.6,29.77,ENE,59,3.6,6.0,84,0.00,BKN,OVC,1.08,21.0,WeatherDisplay:10.37,2013-06-14 00:16:00,
2013-06-13 20:21:00,60.5,55.6,29.77,ENE,59,0.0,3.5,84,0.00,SCT,OVC,1.08,21.0,WeatherDisplay:10.37,2013-06-14 00:21:00,
2013-06-13 20:26:00,60.5,55.6,29.77,ENE,59,2.1,5.0,84,0.00,SCT,OVC,1.08,19.0,WeatherDisplay:10.37,2013-06-14 00:26:00,
2013-06-13 20:31:00,60.5,55.6,29.77,ENE,59,1.2,4.6,84,0.00,SCT,OVC,1.08,14.0,WeatherDisplay:10.37,2013-06-14 00:31:00,
2013-06-13 20:36:00,60.5,55.6,29.77,ENE,59,0.0,1.2,84,0.00,SCT,OVC,1.08,7.0,WeatherDisplay:10.37,2013-06-14 00:36:00,
2013-06-13 20:41:00,60.5,55.6,29.77,ENE,59,0.0,0.0,84,0.00,SCT,OVC,1.08,5.0,WeatherDisplay:10.37,2013-06-14 00:41:00,
2013-06-13 20:46:00,60.3,55.4,29.77,ENE,59,0.0,2.3,84,0.00,SCT,OVC,1.08,5.0,WeatherDisplay:10.37,2013-06-14 00:46:00,
2013-06-13 20:51:00,60.2,55.3,29.77,ENE,59,0.0,1.2,84,0.00,SCT,OVC,1.08,0.0,WeatherDisplay:10.37,2013-06-14 00:51:00,
2013-06-13 20:56:00,60.1,55.2,29.78,ENE,59,0.0,0.0,84,0.00,SCT,OVC,1.08,0.0,WeatherDisplay:10.37,2013-06-14 00:56:00,
2013-06-13 21:01:00,59.9,55.4,29.78,ENE,59,0.0,0.0,85,0.00,SCT,OVC,1.08,0.0,WeatherDisplay:10.37,2013-06-14 01:01:00,
2013-06-13 21:06:00,59.7,55.2,29.77,ENE,59,0.0,0.0,85,0.00,SCT,OVC,1.08,0.0,WeatherDisplay:10.37,2013-06-14 01:06:00,
2013-06-13 21:11:00,59.5,55.0,29.78,ENE,59,0.1,1.2,85,0.00,SCT,OVC,1.08,0.0,WeatherDisplay:10.37,2013-06-14 01:11:00,
2013-06-13 21:16:00,59.3,54.8,29.78,ENE,59,0.2,2.3,85,0.00,SCT,OVC,1.08,0.0,WeatherDisplay:10.37,2013-06-14 01:16:00,
2013-06-13 21:21:00,59.1,54.6,29.78,ENE,59,0.0,0.0,85,0.00,BKN,OVC,1.08,0.0,WeatherDisplay:10.37,2013-06-14 01:21:00,
2013-06-13 21:26:00,58.9,54.7,29.78,ENE,59,0.0,0.0,86,0.00,BKN,OVC,1.08,0.0,WeatherDisplay:10.37,2013-06-14 01:26:00,
2013-06-13 21:31:00,58.6,54.4,29.79,ENE,59,0.0,0.0,86,0.00,BKN,OVC,1.08,0.0,WeatherDisplay:10.37,2013-06-14 01:31:00,
2013-06-13 21:36:00,58.4,54.2,29.79,ENE,59,0.0,0.0,86,0.00,BKN,OVC,1.08,0.0,WeatherDisplay:10.37,2013-06-14 01:36:00,
2013-06-13 21:41:00,58.2,54.0,29.78,ENE,59,0.0,0.0,86,0.00,BKN,OVC,1.08,0.0,WeatherDisplay:10.37,2013-06-14 01:41:00,
2013-06-13 21:46:00,58.0,53.8,29.79,ENE,59,0.0,0.0,86,0.00,BKN,OVC,1.08,0.0,WeatherDisplay:10.37,2013-06-14 01:46:00,
2013-06-13 21:51:00,57.7,53.5,29.79,ENE,59,0.0,0.0,86,0.00,BKN,OVC,1.08,0.0,WeatherDisplay:10.37,2013-06-14 01:51:00,
2013-06-13 21:56:00,57.5,53.3,29.79,ENE,59,0.0,0.0,86,0.00,BKN,OVC,1.08,0.0,WeatherDisplay:10.37,2013-06-14 01:56:00,
2013-06-13 22:01:00,57.3,53.1,29.80,ENE,59,0.0,0.0,86,0.00,BKN,OVC,1.08,0.0,WeatherDisplay:10.37,2013-06-14 02:01:00,
2013-06-13 22:06:00,57.1,53.3,29.80,ENE,59,0.0,0.0,87,0.00,BKN,OVC,1.08,0.0,WeatherDisplay:10.37,2013-06-14 02:06:00,
2013-06-13 22:11:00,56.9,53.1,29.80,ENE,59,0.0,0.0,87,0.00,BKN,OVC,1.08,0.0,WeatherDisplay:10.37,2013-06-14 02:11:00,
2013-06-13 22:16:00,56.9,53.1,29.80,ENE,59,0.0,0.0,87,0.00,BKN,OVC,1.08,0.0,WeatherDisplay:10.37,2013-06-14 02:16:00,
2013-06-13 22:21:00,56.8,53.3,29.80,ENE,59,0.0,0.0,88,0.00,BKN,OVC,1.08,0.0,WeatherDisplay:10.37,2013-06-14 02:21:00,
2013-06-13 22:26:00,56.7,53.2,29.80,ENE,59,0.0,0.0,88,0.00,BKN,OVC,1.08,0.0,WeatherDisplay:10.37,2013-06-14 02:26:00,
2013-06-13 22:31:00,56.6,53.4,29.80,ENE,59,0.0,0.0,89,0.00,BKN,OVC,1.08,0.0,WeatherDisplay:10.37,2013-06-14 02:31:00,
2013-06-13 22:36:00,56.6,53.4,29.80,ENE,59,0.0,0.0,89,0.00,BKN,OVC,1.08,0.0,WeatherDisplay:10.37,2013-06-14 02:36:00,
2013-06-13 22:41:00,56.6,53.4,29.80,ENE,59,0.0,0.0,89,0.00,BKN,OVC,1.08,0.0,WeatherDisplay:10.37,2013-06-14 02:41:00,
2013-06-13 22:46:00,56.5,53.3,29.80,ENE,59,0.0,0.0,89,0.00,BKN,OVC,1.08,0.0,WeatherDisplay:10.37,2013-06-14 02:46:00,
2013-06-13 22:51:00,56.5,53.6,29.80,ENE,59,0.0,0.0,90,0.00,BKN,OVC,1.08,0.0,WeatherDisplay:10.37,2013-06-14 02:51:00,
2013-06-13 22:56:00,56.5,53.6,29.80,ENE,59,0.0,0.0,90,0.00,BKN,OVC,1.08,0.0,WeatherDisplay:10.37,2013-06-14 02:56:00,
2013-06-13 23:01:00,56.4,53.5,29.79,ENE,59,0.0,0.0,90,0.00,BKN,OVC,1.08,0.0,WeatherDisplay:10.37,2013-06-14 03:01:00,
2013-06-13 23:06:00,56.4,53.5,29.79,ENE,59,0.0,0.0,90,0.00,BKN,OVC,1.08,0.0,WeatherDisplay:10.37,2013-06-14 03:06:00,
2013-06-13 23:11:00,56.3,53.4,29.79,ENE,59,0.0,0.0,90,0.00,BKN,OVC,1.08,0.0,WeatherDisplay:10.37,2013-06-14 03:11:00,
2013-06-13 23:16:00,56.3,53.4,29.79,ENE,59,0.0,0.0,90,0.00,BKN,OVC,1.08,0.0,WeatherDisplay:10.37,2013-06-14 03:16:00,
2013-06-13 23:21:00,56.2,53.3,29.79,ENE,59,0.0,0.0,90,0.00,BKN,OVC,1.08,0.0,WeatherDisplay:10.37,2013-06-14 03:21:00,
2013-06-13 23:26:00,56.1,53.2,29.79,ENE,59,0.0,0.0,90,0.00,BKN,OVC,1.08,0.0,WeatherDisplay:10.37,2013-06-14 03:26:00,
2013-06-13 23:31:00,55.9,53.0,29.79,ENE,59,0.0,0.0,90,0.00,BKN,OVC,1.08,0.0,WeatherDisplay:10.37,2013-06-14 03:31:00,
2013-06-13 23:36:00,55.8,52.9,29.79,ENE,59,0.0,0.0,90,0.00,BKN,OVC,1.08,0.0,WeatherDisplay:10.37,2013-06-14 03:36:00,
2013-06-13 23:41:00,55.8,52.9,29.79,ENE,59,0.0,0.0,90,0.00,BKN,OVC,1.08,0.0,WeatherDisplay:10.37,2013-06-14 03:41:00,
2013-06-13 23:46:00,55.8,52.9,29.79,ENE,59,0.0,0.0,90,0.00,BKN,OVC,1.08,0.0,WeatherDisplay:10.37,2013-06-14 03:46:00,
2013-06-13 23:51:00,55.7,52.8,29.80,ENE,59,0.0,0.0,90,0.00,BKN,OVC,1.08,0.0,WeatherDisplay:10.37,2013-06-14 03:51:00,
2013-06-13 23:56:00,55.7,52.8,29.80,ENE,59,0.0,0.0,90,0.00,BKN,OVC,1.08,0.0,WeatherDisplay:10.37,2013-06-14 03:56:00,